York, PA

7:16 AM EDT on August 21, 2017 (GMT -0400)
York

Weather History for KTHV - May, 2014

Change the Weather History Date:

Thursday, May 15, 2014

  Actual Average Record
Temperature  
Mean Temperature 72 °F -  
Max Temperature 79 °F 66 °F 84 °F (2004)
Min Temperature 64 °F 55 °F 36 °F (2001)
Cooling Degree Days 6    
Growing Degree Days 22 (Base 50)    
Moisture  
Dew Point 64 °F    
Average Humidity 87    
Maximum Humidity 100    
Minimum Humidity 60    
Precipitation  
Precipitation 0.23 in - - ()
Sea Level Pressure  
Sea Level Pressure 30.07 in    
Wind  
Wind Speed 6 mph (SE)    
Max Wind Speed 15 mph    
Max Gust Speed 34 mph    
Visibility 6 miles    
Events Rain    
Averages and records for this station are not official NWS values.
T = Trace of Precipitation, MM = Missing Value Source: NWS Daily Summary

Daily Weather History Graph

Daily Weather History Graph

Search for Another Location

Airport or City:

Trip Planner

Search our weather history database for the weather conditions in past years. The results will help you decide how hot, cold, wet, or windy it might be!

Date:

Astronomy

May. 15, 2014 Rise Set
Actual Time 5:52 AM EDT 8:15 PM EDT
Civil Twilight 5:21 AM EDT 8:46 PM EDT
Nautical Twilight 4:44 AM EDT 9:24 PM EDT
Astronomical Twilight 4:02 AM EDT 10:06 PM EDT
Moon 9:21 PM EDT (5/15) 6:37 AM EDT (5/15)
Length of Visible Light 15h 24m
Length of Day
14h 23m
Full, 99% of the Moon is Illuminated
May 15
Full
May 21
Last Quarter
May 28
New
Jun 5
First Quarter
Jun 13
Full

Hourly Weather History & Observations

Time (EDT) Temp. Dew Point Humidity Pressure Visibility Wind Dir Wind Speed Gust Speed Precip Events Conditions
12:17 AM 64.0 °F 63.0 °F 96% 30.15 in 2.0 mi East 5.8 mph - N/A   Overcast
12:27 AM 64.0 °F 63.0 °F 96% 30.15 in 2.5 mi ESE 3.5 mph - N/A   Overcast
12:41 AM 64.0 °F 63.0 °F 96% 30.16 in 3.0 mi Calm Calm - N/A   Overcast
12:53 AM 64.0 °F 63.0 °F 96% 30.16 in 4.0 mi ESE 4.6 mph - N/A   Overcast
1:00 AM 64.0 °F 63.0 °F 96% 30.15 in 4.0 mi SE 3.5 mph - N/A   Overcast
1:21 AM 64.0 °F 64.0 °F 100% 30.15 in 4.0 mi Calm Calm - N/A   Overcast
1:53 AM 64.0 °F 64.0 °F 100% 30.14 in 5.0 mi East 4.6 mph - N/A   Overcast
2:42 AM 64.0 °F 63.0 °F 96% 30.12 in 7.0 mi ESE 5.8 mph - N/A   Overcast
2:53 AM 64.0 °F 63.0 °F 96% 30.12 in 6.0 mi ESE 4.6 mph - N/A   Overcast
3:39 AM 64.9 °F 63.0 °F 93% 30.11 in 8.0 mi SE 4.6 mph - N/A   Overcast
3:53 AM 64.9 °F 63.0 °F 93% 30.11 in 7.0 mi SE 4.6 mph - N/A   Overcast
4:53 AM 64.9 °F 64.0 °F 97% 30.11 in 5.0 mi SE 6.9 mph - N/A   Overcast
5:04 AM 64.9 °F 64.0 °F 97% 30.10 in 5.0 mi SE 6.9 mph - N/A   Overcast
5:53 AM 64.9 °F 63.0 °F 93% 30.10 in 5.0 mi ESE 5.8 mph - N/A   Overcast
6:53 AM 64.9 °F 63.0 °F 93% 30.11 in 5.0 mi SSE 5.8 mph - N/A   Overcast
7:14 AM 64.9 °F 63.0 °F 93% 30.11 in 2.5 mi SE 6.9 mph - N/A   Overcast
7:23 AM 64.9 °F 63.0 °F 93% 30.11 in 1.8 mi SE 6.9 mph - N/A   Overcast
7:44 AM 64.9 °F 63.0 °F 93% 30.11 in 2.0 mi SE 8.1 mph - N/A   Overcast
7:53 AM 64.9 °F 64.0 °F 97% 30.11 in 2.5 mi SSE 6.9 mph - N/A   Overcast
8:22 AM 64.9 °F 64.0 °F 97% 30.11 in 3.0 mi SSE 6.9 mph - N/A   Overcast
8:53 AM 66.0 °F 64.0 °F 93% 30.11 in 6.0 mi SE 8.1 mph - N/A   Overcast
9:03 AM 66.9 °F 64.0 °F 90% 30.10 in 6.0 mi SE 10.4 mph - N/A   Overcast
9:14 AM 68.0 °F 64.0 °F 87% 30.10 in 7.0 mi SSE 8.1 mph - N/A   Overcast
9:53 AM 70.0 °F 64.0 °F 81% 30.10 in 8.0 mi Variable 5.8 mph - N/A   Mostly Cloudy
10:53 AM 73.0 °F 64.9 °F 76% 30.09 in 9.0 mi SSE 10.4 mph 23.0 mph N/A   Mostly Cloudy
11:53 AM 73.0 °F 66.0 °F 79% 30.08 in 8.0 mi SSE 11.5 mph 18.4 mph N/A   Overcast
12:18 PM 73.0 °F 66.0 °F 79% 30.08 in 8.0 mi SSE 12.7 mph 19.6 mph N/A   Mostly Cloudy
12:53 PM 75.0 °F 66.9 °F 76% 30.06 in 8.0 mi SE 11.5 mph 20.7 mph N/A   Mostly Cloudy
1:07 PM 75.0 °F 66.9 °F 76% 30.05 in 7.0 mi ESE 10.4 mph 20.7 mph 0.00 in Rain Light Rain
1:53 PM 79.0 °F 68.0 °F 69% 30.03 in 10.0 mi SE 8.1 mph 24.2 mph 0.00 in   Mostly Cloudy
3:53 PM 78.1 °F 63.0 °F 60% 29.99 in 10.0 mi South 15.0 mph 27.6 mph N/A   Partly Cloudy
4:53 PM 78.1 °F 63.0 °F 60% 29.98 in 10.0 mi South 8.1 mph 34.5 mph N/A   Clear
5:53 PM 75.0 °F 63.0 °F 66% 29.97 in 10.0 mi SSE 15.0 mph 27.6 mph N/A   Scattered Clouds
6:53 PM 75.0 °F 62.1 °F 64% 29.98 in 10.0 mi Variable 5.8 mph 19.6 mph N/A   Mostly Cloudy
7:12 PM 72.0 °F 64.0 °F 76% 29.99 in 1.2 mi SSE 12.7 mph 23.0 mph 0.01 in Rain Heavy Rain
7:14 PM 71.1 °F 64.0 °F 78% 29.99 in 0.8 mi South 8.1 mph 23.0 mph 0.02 in Rain Heavy Rain
7:26 PM 68.0 °F 64.9 °F 90% 29.98 in 2.0 mi WSW 6.9 mph - 0.06 in Rain Light Rain
7:28 PM 68.0 °F 64.9 °F 90% 29.98 in 4.0 mi WSW 6.9 mph - 0.07 in Rain Light Rain
7:53 PM 66.9 °F 64.0 °F 90% 29.99 in 10.0 mi Calm Calm - 0.13 in   Overcast
8:53 PM 68.0 °F 64.9 °F 90% 29.97 in 10.0 mi Calm Calm - 0.06 in   Overcast
9:53 PM 70.0 °F 64.9 °F 84% 29.96 in 10.0 mi SE 5.8 mph - 0.03 in   Overcast
10:53 PM 71.1 °F 64.0 °F 78% 29.95 in 10.0 mi SSE 15.0 mph 20.7 mph N/A   Overcast
11:53 PM 70.0 °F 64.9 °F 84% 29.92 in 10.0 mi SE 13.8 mph 21.9 mph 0.01 in Rain Light Rain